Home   Weather   Sunnyvale   Past weeks

Flag for USA Past Weather in Sunnyvale, California, USA — Yesterday and Last 2 Weeks

Now
61 °F

Clear.


Feels Like: 61 °F
Forecast: 58 / 69 °F
Wind: No wind

Location: Moffett Field

Current Time: Nov 23, 2017 at 11:42:44 pm

Latest Report: Nov 23, 2017 at 10:56 pm


Visibility: 10 mi

Pressure: 30.12 "Hg

Humidity: 87%

Dew Point: 57 °F

Location of SunnyvaleLocation

Past Weather in Sunnyvale — Graph

°F

Sunnyvale Temperature Yesterday

Maximum temperature yesterday: 72 °F (at 12:56 pm)
Minimum temperature yesterday: 52 °F (at 6:56 am)
Average temperature yesterday: 61 °F

High & Low Weather Summary for the Past Weeks

 TemperatureHumidityPressure
High72 °F (Nov 21, 1:56 pm)100% (Nov 11, 2:11 am)30.27 "Hg (Nov 11, 2:11 am)
Low40 °F (Nov 18, 4:56 am)31% (Nov 15, 3:56 pm)29.85 "Hg (Nov 16, 4:10 am)
Average58 °F79%30.10 "Hg
* Reported Nov 8 9:56 pm — Nov 23 9:56 pm, Sunnyvale. Weather by CustomWeather, © 2017

Note: Actual official high and low records may vary slightly from our data, if they occured in-between our weather recording intervals... More about our weather records

Advertising

Sunnyvale Weather History for the Previous 24 Hours

Scroll right to see more
 ConditionsComfort  
Time TempWeatherWind HumidityBarometerVisibility
9:56 pm
Thu, Nov 23
60 °FClear.No wind90%30.12 "Hg10 mi
8:56 pm62 °FClear.No wind83%30.11 "Hg10 mi
7:56 pm62 °FClear.No wind80%30.11 "Hg10 mi
6:56 pm63 °FClear.No wind75%30.10 "Hg10 mi
5:56 pm63 °FClear.3 mph78%30.09 "Hg10 mi
4:56 pm65 °FClear.No wind70%30.09 "Hg10 mi
3:56 pm66 °FSunny.5 mph73%30.09 "Hg10 mi
2:56 pm67 °FSunny.5 mph73%30.08 "Hg10 mi
1:56 pm69 °FSunny.5 mph68%30.10 "Hg10 mi
12:56 pm68 °FSunny.6 mph70%30.12 "Hg10 mi
11:56 am68 °FSunny.3 mph70%30.13 "Hg10 mi
10:56 am66 °FSunny.No wind75%30.15 "Hg10 mi
9:56 am62 °FSunny.No wind86%30.16 "Hg9 mi
8:56 am61 °FSunny.No wind87%30.16 "Hg10 mi
7:56 am57 °FScattered clouds.No wind96%30.16 "Hg9 mi
6:56 am56 °FSunny.No wind97%30.14 "Hg10 mi
5:56 am56 °FClear.5 mph97%30.12 "Hg10 mi
4:56 am57 °FClear.3 mph96%30.12 "Hg10 mi
3:56 am58 °FClear.No wind93%30.13 "Hg10 mi
2:56 am58 °FClear.No wind93%30.14 "Hg10 mi
1:56 am58 °FClear.3 mph93%30.13 "Hg10 mi
12:56 am60 °FClear.No wind90%30.14 "Hg10 mi
11:56 pm
Wed, Nov 22
60 °FClear.No wind90%30.14 "Hg10 mi
Weather by CustomWeather, © 2017

See weather overview